Regional Weather Roundup
Issued by NWS

Home | Current Version | Previous Version | Graphics & Text | Print | Product List | Glossary On
Versions: 1 2 3 4 5 6 7 8 9 10 11 12 13 14 15 16 17 18 19 20 21 22 23 24 25 26 27 28 29 30 31 32 33 34 35 36 37 38 39 40 41 42 43 44 45 46 47 48 49 50
000
ASUS43 KLSX 181607
RWRMO

WEATHER SUMMARY FOR MISSOURI
NATIONAL WEATHER SERVICE SPRINGFIELD MO
1100 AM CDT SAT APR 18 2015

NOTE: "FAIR" INDICATES FEW OR NO CLOUDS BELOW 12,000 FEET WITH NO
       SIGNIFICANT WEATHER AND/OR OBSTRUCTIONS TO VISIBILITY.
       CURRENT SKY AND/OR WEATHER CONDITIONS ARE NOT AVAILABLE FOR
       CHILLICOTHE AND FARMINGTON.

MOZ001>031-035>038-043-044-053-054-181700-
...NORTHERN AND WESTERN MISSOURI...

CITY           SKY/WX    TMP DP  RH WIND       PRES   REMARKS
KANSAS CTY INT RAIN      59  58  96 SW18G24   29.94R FOG
KANSAS C DTWN  RAIN      62  58  86 W9G22     29.94F FOG
LEE`S SUMMIT   TSTM      60  58  92 W7G17     29.95R
ST JOSEPH      TSTM      61  60  97 S13       29.94R VSB 1
CHILLICOTHE      N/A     69  61  75 SE8       29.94R
KIRKSVILLE     TSTM      62  57  83 W13G24    29.99S

$$
MOZ066>068-077>081-088>096-101>105-181700-
...SOUTHWEST MISSOURI...

CITY           SKY/WX    TMP DP  RH WIND       PRES   REMARKS
SPRINGFIELD    LGT RAIN  62  60  93 S8        29.98R
JOPLIN         LGT RAIN  60  58  92 VRB5      29.99S

$$
MOZ032>034-039>042-045>050-055>058-069>072-181700-
...CENTRAL MISSOURI...

CITY           SKY/WX    TMP DP  RH WIND       PRES   REMARKS
COLUMBIA       PTSUNNY   72  61  68 SE15      29.97S
JEFFERSON CITY MOSUNNY   72  61  68 SE14      29.97S
ROLLA          PTSUNNY   67  60  78 SE9       29.98S
SEDALIA        CLOUDY    72  60  66 SW8       29.96R
WHITEMAN AFB   TSTM      65  60  83 W13       29.96R
WARRENSBURG    CLOUDY    63  55  77 SW8       29.96R
OSAGE BEACH    CLOUDY    68  59  73 SE9       29.98R

$$
MOZ051-052-059>065-181700-
...EAST CENTRAL MISSOURI...

CITY           SKY/WX    TMP DP  RH WIND       PRES   REMARKS
ST LOUIS INTL  PTSUNNY   73  60  63 E8        30.01R
SPIRIT OF STL  CLOUDY    72  60  66 SE8       30.00R
ST CHARLES     PTSUNNY   73  61  65 E7        30.00R

$$
MOZ072>076-082>087-097>100-106>115-181700-
...SOUTH CENTRAL AND SOUTHEAST MISSOURI...

CITY           SKY/WX    TMP DP  RH WIND       PRES   REMARKS
CAPE GIRARDEAU MOSUNNY   73  62  68 SE9       30.01R
FARMINGTON     PTSUNNY   68  61  77 S7        30.06R
POPLAR BLUFF   CLOUDY    71  63  75 E7        30.00R
WEST PLAINS    CLOUDY    66  59  78 SE10      30.02S

$$


USA.gov is the U.S. government's official web portal to all federal, state and local government web resources and services.